Погода в Ситке

США     57°03′18″N   135°20′34″W
темп.,
°C
ветер,
м/с
пор.,
м/с
влажн.,
%
обл.,
%
осадки,
мм/ч
давл.,
гПа
погр.,
м
15 мая, сб
сб1501:00+6вюв3393100 5.4 1013126
04:00+6ююв2397100 8.6 1013161
07:00+6ю3598100 2.1 1014373
10:00+6ююз3495100 3.4 1015657
13:00+6зюз2398100 1.8 1017276
16:00+5зюз2292100 2.6 1018375
19:00+5зюз229199 0.5 1017480
22:00+4юз118875 0.8 1017315
16 мая, вс
вс1601:00+4ююз118395 0.3 101656
04:00+4ююз117988 0.4 101644
07:00+4зюз117724 0.1 1015434
10:00+6зюз227288 0.3 1015915
13:00+7зюз327046 0.9 1015885
16:00+6з327376 1.8 1015872
19:00+5з217378 0.3 1014657
22:00+5зсз117381 0.4 1013234
17 мая, пн
пн1701:00+5ссз117569 0.0 101342
04:00+4св117854 0.1 101249
07:00+5ссв117264 0.0 1012316
10:00+7з116060 0.2 1012985
13:00+8з2263100 1.0 10121079
16:00+6з2280100 2.8 1012639
19:00+5з1179100 1.1 1012497
22:00+4сз1184100 1.1 101261
18 мая, вт
вт1801:00+3сз118898 0.0 101231
04:00+2всв009196 0.0 101324
07:00+4сз018647 0.0 1014167
10:00+8з2172100 0.0 1015692
13:00+9з326291 0.1 10151108
16:00+8зсз3267100 0.1 1017848
19:00+8зсз227186 0.1 1018760
22:00+5сз228776 0.1 101958
19 мая, ср
ср1901:00+3ссз119594 0.0 101938
04:00+3с119655 0.0 102044
07:00+5ссз118258 0.0 1020213
10:00+8зсз226621 0.0 1020571
13:00+11зсз33605 0.0 1020864
16:00+10зсз33592 0.0 1021804
19:00+9зсз23622 0.0 1021655
22:00+6зсз11810 0.0 102219